EUTE 115 WEST B(SATMEX 7

导读

EUTE 115 WEST B(别名SATMEX 7)是欧洲卫星公司(EUTELSAT)拥有的通信卫星,于2015年3月2日发射。该卫星定点于地球静止轨道,近地点高度约35787千米,远地点高度约35787千米,轨道周期接近1436分钟,倾角近乎0度,主要为美洲等区域提供通信广播电视传输服务,助力区域媒体覆盖与宽带通信服务。

Basic Information
目录编号:
40425
目录名称:
EUTE 115 WEST B(SATMEX 7
国际标识:
2015-010B
轨道中心:
EARTH
卫星名称:
EUTE 115 WEST B(SATMEX 7
卫星全名:
--
卫星状态:
在轨 (已飞行4152 天)
发射日期:
2015-03-02 UTC
国别 :
(EUTE)
星等 :
--
Orbit Information
数据来源 国际轨道数据 AOE轨道数据
星历时间 2026-07-14T00:20:25+0800
14小时前
查看轨道信息
2026-07-12T13:00:00+0800
2天前
查看轨道信息
半长轴 42166.41km 42165.093km
偏心率 0.000042 0.000001
轨道倾角 0.004° 0.010°
近地点辐角 252.925° 324.479°
升交点赤经 167.775° 116.474°
平近点角 1.049° 169.254°
近地点 35786.502km 35786.913km
远地点 35790.044km 35786.999km
周期 1436.183分钟 1436.115分钟
每日圈数 1.002658 1.002705
Detailed Information
使用方式:
暂无
2D Orbit Map
3D Orbit Map
Orbit Altitude Analysis Chart
Orbit Inclination Analysis Chart
Orbit Comprehensive Analysis Chart
View Comprehensive Chart